Wind_Speed
28 28 27 27 28 29 29 30 30 30 30 29 29 29 29 29 30 30 31 31 32 31 31 31 31 30 30 29 28 29 29 29 28 28 29 29 28 28 29 29 27 25 23 21 19 20 21 20 18 22 31 41 47 49 50 51 50 48 46 45 43 40 42
28 28 27 27 28 28 29 29 29 29 28 27 27 27 27 27 27 28 29 30 30 31 30 30 30 30 30 30 28 28 29 29 27 27 28 28 27 27 28 29 28 27 25 23 23 24 24 23 21 20 21 27 37 45 49 51 52 51 48 46 44 41 41
28 27 27 27 27 28 28 28 27 27 26 26 25 25 25 25 25 25 26 27 28 29 29 29 29 29 29 29 28 27 28 28 27 26 27 27 27 26 26 27 28 28 28 28 29 30 29 27 26 25 23 22 25 33 41 47 51 53 50 46 45 43 39
26 26 26 26 26 27 26 26 25 24 24 23 23 23 23 23 23 23 23 24 25 26 27 27 28 28 28 28 26 26 26 27 26 25 25 26 26 25 25 26 27 28 29 28 29 30 30 29 27 25 25 24 23 25 31 38 43 49 50 45 42 42 39
25 25 25 24 24 24 24 23 23 22 21 21 21 21 21 21 21 21 22 22 23 24 25 25 26 26 26 26 25 24 24 25 25 24 24 25 25 25 24 24 25 26 27 27 27 28 27 26 26 25 23 23 24 23 25 32 36 41 47 46 42 42 40
23 24 23 23 22 22 21 21 20 20 19 19 19 19 20 20 19 19 19 20 21 22 23 23 24 24 24 24 23 22 22 23 23 23 24 24 24 24 24 23 23 24 25 25 25 24 24 23 23 23 22 21 22 23 21 24 29 33 40 43 42 39 36
22 23 22 22 21 21 20 20 19 19 19 18 18 18 18 18 18 17 17 18 19 21 21 22 22 23 23 23 22 21 21 21 22 22 22 23 23 23 23 23 22 22 23 23 23 22 22 21 21 21 21 20 21 22 21 20 22 25 30 35 36 35 33
21 22 23 23 22 22 21 20 20 19 19 19 18 18 18 18 17 17 16 16 17 19 20 20 21 21 22 22 21 21 20 20 20 21 21 22 22 21 21 21 21 21 21 21 22 21 21 20 20 20 20 19 20 20 20 19 20 21 23 26 29 31 33
20 20 22 22 23 23 22 21 21 20 19 19 19 19 19 19 18 17 16 16 17 17 18 18 19 19 20 20 20 20 19 19 19 20 20 21 21 21 20 20 20 20 20 20 20 20 19 19 18 18 18 18 18 19 19 19 19 20 21 21 23 25 27
20 20 21 22 22 22 21 21 20 20 20 19 19 19 19 19 19 18 18 17 17 17 18 18 18 18 18 18 18 18 18 18 18 19 19 20 20 20 20 19 19 19 19 19 19 18 18 18 17 17 17 17 17 18 18 18 18 19 20 20 21 22 22
22 22 21 20 20 20 20 20 20 20 20 20 20 20 20 20 20 20 19 19 19 19 18 18 18 18 18 18 18 17 17 17 18 18 19 19 20 20 19 19 19 19 19 19 19 18 18 17 17 16 16 17 17 17 17 18 18 18 19 19 20 21 21
23 23 22 20 21 21 21 21 22 22 22 22 22 21 22 22 21 21 21 20 20 20 20 20 20 19 19 18 18 18 18 18 17 18 18 19 19 20 20 19 19 19 20 20 20 20 19 19 18 18 17 17 18 18 18 19 20 20 20 20 21 21 21
25 24 23 23 24 24 24 23 22 22 22 22 21 21 21 21 21 21 21 21 21 21 22 21 21 21 20 20 20 20 20 20 20 19 19 19 20 20 20 20 20 20 20 21 21 22 22 21 21 21 20 20 20 20 20 20 22 23 23 22 23 24 24
26 26 25 25 25 26 26 25 24 23 22 22 22 21 21 21 21 21 21 20 20 20 20 21 21 21 20 20 20 20 21 21 22 22 22 22 22 22 22 22 22 22 21 21 22 23 23 24 24 23 23 23 23 23 23 23 23 24 25 25 25 26 26
27 27 26 26 26 26 26 26 24 25 26 26 25 25 24 23 23 22 22 22 22 21 20 20 21 22 22 22 21 21 22 22 22 23 23 23 23 24 24 25 25 25 25 24 24 24 24 25 25 25 25 25 25 25 25 25 25 25 26 27 27 28 28
28 27 26 28 28 26 26 26 25 26 26 26 26 27 28 27 26 25 24 24 25 24 23 23 23 23 23 23 23 23 24 24 25 25 25 24 24 24 25 26 27 27 28 28 28 27 27 27 27 27 27 27 28 28 28 28 28 28 28 29 30 30 30
31 29 28 31 31 29 29 30 29 28 27 27 27 28 28 28 29 28 27 26 26 26 24 24 23 23 23 23 23 23 24 25 26 27 27 27 26 26 26 27 28 28 29 29 29 30 30 30 30 30 30 30 30 31 31 31 31 31 31 32 33 33 32
34 33 32 32 33 32 31 32 32 32 32 32 32 30 28 27 28 29 30 28 27 26 25 25 25 24 24 25 24 24 25 26 27 28 28 28 28 29 29 29 29 30 31 31 31 31 31 31 31 32 32 32 32 32 33 34 34 34 33 33 35 35 35
36 35 33 33 35 35 34 34 34 33 34 33 33 32 31 29 28 28 29 29 29 29 29 28 28 28 28 28 28 27 28 29 29 30 31 31 31 31 31 32 32 33 33 33 33 33 33 33 33 33 33 33 33 33 34 34 35 36 36 35 36 36 36
38 36 35 37 38 38 38 38 36 35 36 36 35 36 35 34 32 30 30 30 30 31 33 32 32 32 32 34 34 33 34 34 34 34 34 34 33 33 33 34 35 36 36 36 36 36 36 36 35 35 35 34 34 34 34 35 35 36 37 37 37 37 37
41 41 40 40 41 41 42 42 41 40 41 39 37 37 39 40 38 34 33 34 33 34 34 34 36 36 35 36 37 38 38 37 37 36 36 36 35 35 36 36 37 38 39 40 40 40 40 39 39 39 38 37 36 36 36 36 36 37 37 38 39 39 39
43 45 44 42 42 43 45 47 47 45 44 41 37 36 38 41 40 37 37 37 38 39 37 35 37 39 38 39 40 39 38 38 38 38 38 38 37 36 37 38 39 39 40 41 42 42 43 42 42 42 42 41 40 39 39 38 38 38 39 39 40 41 42
46 46 46 45 44 44 44 45 44 42 43 43 42 42 41 41 43 42 41 39 40 41 39 37 38 40 41 42 43 41 40 39 40 40 40 40 40 40 40 40 41 41 41 43 44 44 44 44 44 44 44 43 43 42 41 41 41 41 41 41 41 42 44
51 51 50 50 49 49 48 47 44 41 41 42 44 44 43 43 45 46 45 44 44 44 43 42 41 41 43 46 46 44 42 42 42 43 44 43 42 41 40 40 40 41 41 43 44 46 46 46 46 45 45 45 45 45 44 43 43 43 43 43 43 44 45
53 54 55 55 55 56 56 55 54 51 47 45 44 44 44 45 47 48 48 48 49 49 47 44 43 43 45 48 47 45 45 45 44 46 46 44 43 43 42 42 42 43 43 43 44 45 46 46 46 45 45 46 47 47 47 46 45 45 45 45 45 46 46
55 56 56 56 57 58 58 58 57 55 52 49 47 46 45 45 47 48 49 50 51 51 49 47 47 48 49 49 48 48 48 47 46 47 49 49 49 49 48 48 48 48 48 47 47 47 47 47 47 47 46 46 46 47 47 47 47 47 47 46 46 46 47
53 53 53 53 53 54 55 55 54 53 52 51 50 50 49 49 50 50 51 52 52 51 51 51 52 52 52 52 51 50 51 51 51 51 51 51 50 48 47 48 48 49 49 49 49 49 49 48 48 48 48 48 48 47 47 47 47 47 47 47 47 47 48
54 53 53 53 52 52 53 54 55 55 55 55 55 55 55 55 55 55 56 56 55 55 56 57 56 56 56 55 54 54 55 54 52 51 51 51 51 49 49 50 50 50 50 50 50 49 48 48 48 48 49 49 50 50 49 49 48 48 48 47 47 48 48
58 58 58 57 56 56 56 57 58 59 59 59 60 60 59 59 60 60 60 60 60 59 60 60 60 60 59 57 56 56 56 54 54 54 54 55 54 52 51 51 52 52 53 53 52 51 50 50 50 49 50 50 50 51 50 50 50 50 49 49 48 48 48
57 57 57 58 58 58 59 59 59 60 61 61 61 61 62 62 62 62 62 62 61 60 60 61 60 59 58 57 56 56 56 56 56 56 55 55 55 54 53 53 53 53 53 52 51 51 51 51 51 51 51 51 51 51 50 50 51 51 51 50 50 50 49
56 56 56 56 56 57 57 57 58 58 59 59 59 60 60 61 61 60 59 59 58 58 58 58 57 56 56 56 55 55 55 55 55 55 56 56 56 55 55 54 54 53 53 53 54 53 53 53 53 53 53 53 53 52 51 51 51 51 51 51 50 51 52
56 56 56 55 56 56 56 56 56 56 56 56 56 57 58 59 58 56 55 55 56 56 56 56 55 55 55 54 54 54 55 55 55 56 57 57 57 56 56 56 55 55 56 57 58 57 56 56 56 56 56 56 55 55 54 53 52 53 53 52 51 51 52
55 55 55 55 55 56 56 56 55 55 55 55 55 55 56 57 55 53 52 53 54 54 54 54 54 54 54 54 54 54 54 54 54 55 55 56 56 56 56 56 56 55 56 56 56 56 56 56 57 57 58 58 58 57 56 55 54 55 55 55 54 54 54
53 53 53 54 54 54 55 55 55 55 55 54 54 54 54 54 53 53 52 52 52 52 52 52 52 53 53 53 53 54 54 53 52 53 53 53 53 54 54 55 55 55 55 55 55 54 54 54 55 56 57 57 58 58 58 57 56 56 56 57 57 57 57
52 52 52 53 53 53 54 54 54 54 54 53 52 53 53 52 52 53 52 51 50 49 50 50 51 51 51 52 52 52 52 52 51 51 50 50 51 52 52 54 55 55 55 55 55 54 54 54 54 55 56 56 57 57 58 58 57 57 57 58 58 59 58
52 52 52 52 53 53 53 53 53 53 53 52 52 52 53 52 52 52 51 50 49 48 49 49 48 48 48 49 49 50 50 50 49 49 49 49 50 50 51 53 54 54 54 53 53 52 52 52 53 54 55 56 57 57 58 58 58 58 58 58 59 59 59
51 52 51 52 52 53 53 53 52 51 51 51 52 53 52 51 51 51 51 50 48 48 48 47 46 46 46 46 46 48 48 47 46 47 48 48 48 50 52 53 53 52 51 51 51 51 52 53 55 56 57 58 58 59 59 59 59 59 58 58 59 59 60
Wind_Direction
270 269 269 268 268 267 266 265 264 263 263 262 262 263 263 264 265 266 267 269 270 271 271 272 273 274 274 274 274 273 273 272 270 269 268 267 266 264 263 263 265 266 262 261 263 263 264 263 255 246 243 242 242 241 240 240 240 239 240 239 236 236 241
268 269 269 268 267 267 266 265 264 264 264 264 264 264 264 265 265 266 267 268 270 272 272 272 273 273 273 274 273 272 271 270 269 268 267 267 266 264 264 262 263 263 260 259 262 265 268 268 268 268 261 250 245 243 241 241 241 240 240 240 236 233 236
268 268 267 266 265 265 265 264 264 265 265 266 266 266 265 265 265 266 266 268 270 272 273 274 273 273 273 273 272 271 270 270 269 267 267 267 268 266 264 263 262 263 261 260 262 265 269 270 271 273 274 268 256 247 243 242 241 240 241 240 237 234 236
269 268 266 265 264 263 264 264 265 266 266 266 267 267 266 266 266 266 266 268 270 273 274 275 274 273 273 273 272 271 269 269 269 268 267 268 269 268 267 266 265 265 265 263 264 267 269 270 271 271 272 274 268 253 243 244 243 240 239 240 238 235 238
271 269 267 266 264 264 264 265 266 267 268 268 267 268 268 267 267 267 268 269 271 272 274 274 274 274 274 274 273 272 270 269 269 268 267 266 268 268 267 265 265 266 266 266 265 266 269 270 272 272 270 272 272 262 245 243 246 241 238 240 241 242 246
273 272 270 268 266 265 265 266 266 267 267 268 268 268 267 267 268 269 270 272 273 275 276 275 275 275 275 275 275 273 271 270 269 268 267 267 266 266 266 264 262 262 264 265 266 266 268 270 271 273 272 270 271 270 259 247 245 242 239 241 245 248 251
273 271 270 268 266 264 264 265 265 266 266 266 266 266 266 266 266 268 270 273 274 276 277 277 277 277 277 277 277 276 274 272 270 268 266 266 266 265 265 264 262 261 260 262 264 266 267 268 270 272 274 273 271 270 269 260 250 244 241 241 244 246 246
274 271 269 267 265 263 262 262 262 263 264 265 265 265 265 265 265 266 268 270 272 274 274 276 277 278 279 280 280 280 277 274 271 269 266 265 265 264 263 262 261 261 260 260 262 265 266 266 268 269 270 271 272 270 269 266 261 255 250 246 246 245 241
271 268 267 266 265 264 263 263 263 263 263 265 265 265 265 265 265 266 268 269 271 271 271 272 273 275 277 279 280 281 279 276 272 270 268 266 265 265 262 261 260 260 260 260 260 262 264 265 265 265 266 266 266 267 268 265 262 261 261 258 256 253 248
267 267 266 264 263 263 262 263 263 263 263 263 263 264 264 264 265 266 268 270 272 272 273 272 272 272 273 275 276 277 276 275 273 270 268 267 267 267 266 263 262 261 260 261 262 262 263 265 265 263 263 264 264 265 266 266 263 262 263 264 263 262 259
269 267 262 260 258 258 260 262 264 265 265 265 264 263 264 264 264 264 266 268 270 271 273 274 275 275 275 276 276 276 275 273 272 270 268 267 268 269 270 269 268 266 265 265 265 265 265 265 266 263 261 261 263 265 266 267 267 266 265 266 267 266 265
268 263 257 256 257 260 262 264 266 268 269 269 269 267 266 264 263 263 263 264 266 268 269 270 271 272 274 275 276 278 278 277 275 272 269 267 267 267 269 270 270 271 271 271 270 270 269 268 267 265 263 261 261 263 266 268 269 269 268 268 269 270 269
264 260 258 260 261 262 263 265 267 268 270 271 271 270 270 268 267 264 263 262 263 266 267 268 268 268 268 270 272 274 276 277 278 277 275 272 269 267 267 266 267 267 269 271 271 272 272 271 270 269 267 265 263 262 263 265 268 270 270 269 269 270 270
262 260 258 260 263 264 264 265 263 264 266 267 268 270 271 272 271 270 268 265 262 261 263 265 267 267 266 266 268 270 273 275 276 276 277 276 274 272 269 267 266 265 265 266 268 269 270 271 270 270 269 268 266 265 264 262 263 267 269 269 268 269 270
262 260 257 258 262 264 265 265 263 265 265 262 262 265 266 268 269 268 267 265 263 261 261 263 267 270 272 272 272 272 273 274 275 275 275 276 275 274 272 270 268 266 265 264 264 265 266 268 268 268 268 268 267 266 265 265 264 265 267 269 269 269 270
261 259 258 261 263 262 262 263 266 270 269 265 264 264 262 262 263 263 261 261 262 263 264 266 270 273 276 279 280 280 279 278 277 276 276 275 275 273 271 270 269 268 268 266 265 264 263 263 264 265 266 267 267 267 266 267 267 267 269 270 270 269 269
261 260 261 264 264 262 260 260 263 267 267 269 271 268 265 261 259 259 258 258 260 261 262 266 269 271 273 276 280 283 283 283 282 280 279 278 276 275 273 270 269 268 268 267 267 266 266 265 264 264 264 264 266 267 267 268 268 268 270 271 272 271 270
261 262 261 261 262 263 260 260 264 267 269 271 270 268 268 265 260 257 257 258 261 260 259 260 261 264 267 269 273 277 280 284 285 285 285 283 282 280 278 276 274 271 269 268 267 266 266 266 266 266 266 265 265 266 267 268 268 268 268 269 269 270 270
257 259 260 260 261 261 259 259 263 268 269 269 266 265 267 267 265 263 261 259 260 259 258 258 259 261 264 267 269 272 276 280 282 284 285 286 286 284 282 280 279 277 275 273 271 269 267 266 266 266 266 266 266 265 266 267 268 269 268 267 266 266 266
253 256 261 262 261 262 261 259 260 265 265 264 263 263 264 266 268 270 266 260 258 260 261 262 264 265 268 271 271 274 278 279 280 281 282 284 285 284 283 282 280 279 278 277 275 274 272 270 269 267 266 266 266 265 265 265 266 267 268 268 266 264 263
257 258 261 262 262 262 261 258 260 265 264 260 260 261 262 264 267 269 270 266 262 262 263 265 268 270 272 276 277 278 280 281 280 280 280 281 282 283 283 282 281 279 278 277 277 276 275 274 273 271 270 268 268 267 266 265 264 264 264 265 265 263 262
260 259 259 259 260 260 260 260 261 263 259 255 257 262 264 266 266 267 270 271 267 265 265 267 269 271 274 277 278 279 281 281 282 282 282 280 280 283 284 282 281 280 279 278 277 276 276 275 275 274 273 272 270 269 268 267 266 264 263 262 261 260 260
256 257 256 255 255 255 257 259 259 255 252 252 257 262 265 268 268 268 269 271 270 269 268 268 270 272 274 275 276 278 279 281 282 283 283 282 280 281 283 282 279 279 279 279 279 277 276 276 276 275 274 273 272 271 269 268 267 265 264 263 261 260 258
256 256 256 256 257 257 259 261 259 257 256 257 259 261 263 266 269 269 269 270 271 271 271 271 273 274 275 275 276 278 280 282 283 283 283 282 280 281 282 281 279 280 280 281 281 280 279 278 277 277 274 272 271 271 271 270 268 266 264 263 263 262 260
257 258 257 258 258 259 261 262 262 263 263 263 262 263 265 266 268 269 270 271 271 272 272 274 275 275 275 276 278 280 282 283 283 282 281 281 281 283 283 281 281 282 282 281 282 282 281 279 278 277 276 273 271 270 270 270 269 267 265 263 263 263 262
257 258 259 260 260 261 262 264 265 265 264 263 263 264 266 267 268 269 270 270 271 271 272 273 274 276 277 277 279 280 282 282 281 281 281 281 283 284 284 283 282 283 282 281 281 280 281 280 279 277 276 274 273 271 271 270 269 268 266 264 262 262 262
254 255 257 258 260 260 261 263 265 266 265 264 264 265 267 267 268 268 268 268 268 269 271 272 273 275 277 278 279 279 280 281 281 281 281 282 283 285 285 285 284 284 283 282 280 279 278 278 277 277 276 275 273 272 270 270 270 269 269 267 264 261 261
256 256 256 258 259 260 260 262 265 266 267 267 266 267 267 268 268 268 268 268 269 270 272 272 273 275 277 278 279 279 279 280 280 280 281 283 283 283 284 284 284 283 283 281 279 278 276 274 274 274 274 274 273 272 270 269 268 268 268 268 267 264 261
259 259 260 261 261 262 263 264 265 266 267 268 269 269 269 269 269 270 270 270 271 272 274 274 274 275 276 277 278 279 279 278 277 279 281 283 282 282 283 283 283 283 281 279 278 276 275 274 273 273 272 272 272 272 272 270 268 267 266 266 266 265 263
260 260 260 261 262 263 263 263 264 265 266 268 269 270 270 270 271 271 272 272 273 274 274 275 275 276 276 276 277 277 277 277 278 279 280 281 282 282 282 282 282 281 279 277 277 276 275 275 274 273 272 272 272 271 271 270 268 267 266 266 265 264 264
260 260 260 261 261 262 263 263 264 265 266 267 269 270 270 271 272 273 274 274 275 275 275 276 276 276 276 276 276 276 277 277 278 278 279 280 281 281 281 281 280 278 276 276 277 278 277 276 275 274 273 272 272 271 271 269 267 265 265 265 265 264 263
259 259 260 261 261 262 263 264 264 265 266 267 269 270 270 271 272 273 274 274 274 274 275 275 275 275 275 275 274 275 275 275 276 277 278 279 280 280 280 279 278 276 276 277 278 278 278 277 276 275 274 273 272 271 271 269 267 266 264 264 264 264 264
259 259 259 259 260 261 262 263 264 265 265 266 267 268 269 270 271 272 271 271 272 272 273 273 273 273 272 272 272 272 273 274 274 275 276 277 278 279 279 279 278 277 277 277 278 278 278 278 277 277 276 275 274 273 271 270 268 267 265 264 264 265 265
259 259 258 258 259 259 260 261 262 263 264 265 266 267 268 268 269 269 268 268 269 270 271 271 271 270 270 270 270 271 271 272 273 274 275 276 277 277 278 278 278 278 278 279 279 279 279 279 278 278 277 276 275 275 273 272 270 268 266 265 264 265 266
260 259 258 258 258 258 259 259 260 261 262 263 264 266 266 266 267 267 268 268 269 269 269 269 269 269 268 269 269 269 269 270 271 272 274 275 276 277 278 278 279 280 280 280 280 280 280 279 278 278 277 277 277 276 275 273 272 270 267 265 264 264 264
259 259 259 258 258 259 259 259 259 260 261 262 263 263 264 265 266 267 268 268 268 268 267 267 267 267 266 266 266 267 268 270 271 273 274 275 277 278 278 279 280 280 280 280 281 281 280 280 280 279 279 279 278 277 275 274 272 270 268 266 265 263 263
258 258 258 258 259 259 259 259 260 260 261 261 261 262 263 264 265 266 267 268 268 267 267 266 266 266 265 265 265 266 268 270 272 273 274 275 277 278 278 278 278 279 280 281 282 282 283 284 284 284 283 281 279 278 276 274 272 270 269 267 264 262 262
Height
5750 5750 5751 5751 5751 5751 5752 5752 5752 5753 5753 5754 5754 5755 5755 5755 5755 5755 5755 5755 5755 5756 5756 5757 5757 5757 5757 5757 5758 5758 5758 5758 5758 5758 5759 5759 5760 5760 5760 5760 5761 5763 5763 5763 5763 5764 5764 5764 5765 5765 5767 5768 5768 5770 5772 5773 5775 5778 5780 5781 5783 5784 5785
5748 5748 5748 5748 5749 5749 5749 5749 5750 5750 5750 5751 5751 5752 5752 5752 5753 5753 5753 5753 5752 5752 5753 5754 5754 5754 5754 5754 5755 5755 5754 5754 5755 5755 5756 5756 5757 5758 5758 5758 5758 5759 5761 5761 5761 5761 5761 5762 5763 5764 5764 5765 5765 5766 5767 5768 5771 5774 5776 5777 5778 5779 5779
5746 5746 5746 5746 5746 5747 5747 5747 5747 5748 5748 5748 5749 5749 5749 5750 5750 5750 5750 5750 5750 5750 5750 5750 5751 5751 5751 5751 5751 5752 5752 5751 5752 5752 5752 5753 5753 5755 5755 5755 5755 5756 5757 5758 5758 5758 5758 5760 5761 5762 5762 5762 5762 5762 5763 5764 5766 5769 5771 5773 5774 5775 5776
5743 5743 5744 5744 5744 5744 5745 5745 5745 5746 5746 5746 5746 5746 5747 5747 5747 5747 5748 5748 5748 5747 5747 5748 5748 5748 5748 5748 5749 5749 5749 5749 5749 5749 5750 5750 5750 5751 5752 5752 5752 5753 5754 5755 5755 5755 5755 5756 5757 5759 5760 5760 5760 5760 5760 5760 5761 5764 5767 5769 5770 5771 5773
5740 5741 5741 5742 5742 5742 5743 5743 5743 5743 5744 5744 5744 5744 5744 5744 5745 5745 5745 5745 5745 5745 5745 5745 5745 5746 5746 5746 5746 5747 5747 5747 5747 5747 5747 5748 5748 5748 5749 5749 5750 5750 5750 5751 5752 5753 5753 5753 5754 5755 5756 5757 5757 5758 5758 5758 5758 5760 5763 5765 5766 5768 5769
5738 5738 5739 5740 5740 5741 5741 5741 5741 5741 5741 5741 5742 5742 5742 5742 5742 5742 5742 5742 5742 5742 5742 5742 5743 5743 5743 5744 5744 5745 5745 5745 5745 5745 5745 5745 5746 5746 5747 5747 5747 5748 5748 5749 5749 5750 5750 5750 5750 5751 5752 5754 5755 5755 5756 5756 5756 5758 5759 5761 5763 5764 5765
5735 5736 5737 5737 5738 5738 5739 5739 5739 5739 5739 5739 5739 5739 5740 5740 5740 5740 5740 5740 5740 5740 5740 5740 5740 5741 5741 5741 5742 5743 5743 5743 5743 5743 5743 5743 5743 5744 5744 5745 5745 5746 5746 5747 5747 5747 5748 5748 5748 5748 5749 5750 5751 5752 5753 5754 5754 5755 5757 5758 5759 5761 5762
5733 5734 5734 5735 5735 5736 5736 5736 5737 5737 5737 5737 5737 5737 5737 5738 5738 5738 5739 5739 5739 5739 5738 5738 5738 5738 5739 5739 5740 5740 5741 5741 5742 5742 5742 5742 5742 5742 5742 5743 5743 5743 5744 5744 5745 5745 5745 5746 5746 5746 5746 5747 5748 5748 5750 5751 5752 5753 5754 5755 5756 5757 5758
5731 5731 5732 5732 5733 5733 5734 5734 5734 5734 5735 5735 5735 5735 5735 5735 5736 5736 5736 5737 5737 5737 5737 5737 5737 5737 5737 5737 5738 5738 5739 5739 5740 5740 5740 5741 5741 5741 5741 5741 5741 5741 5742 5742 5743 5743 5743 5744 5744 5744 5744 5745 5745 5746 5746 5748 5749 5749 5751 5752 5753 5754 5755
5729 5729 5730 5730 5730 5731 5731 5731 5731 5732 5732 5732 5732 5733 5733 5733 5733 5734 5734 5735 5735 5735 5735 5735 5735 5736 5736 5736 5736 5736 5737 5737 5738 5738 5739 5739 5739 5739 5740 5740 5740 5740 5740 5740 5741 5741 5741 5742 5742 5743 5743 5743 5743 5744 5744 5745 5746 5747 5748 5749 5749 5751 5752
5727 5727 5727 5728 5728 5728 5728 5728 5729 5729 5730 5730 5731 5731 5731 5731 5731 5732 5732 5732 5733 5733 5733 5733 5734 5734 5734 5734 5734 5735 5735 5735 5736 5736 5737 5737 5738 5738 5738 5739 5739 5739 5739 5739 5739 5740 5740 5740 5741 5741 5741 5742 5742 5742 5743 5743 5743 5744 5745 5746 5746 5747 5749
5724 5725 5725 5725 5725 5726 5726 5726 5726 5727 5727 5728 5728 5729 5729 5729 5729 5729 5730 5730 5730 5731 5731 5731 5731 5732 5732 5732 5733 5733 5733 5733 5734 5734 5735 5735 5736 5736 5736 5737 5737 5738 5738 5738 5738 5738 5739 5739 5739 5740 5740 5740 5741 5741 5741 5741 5741 5742 5743 5743 5744 5744 5746
5721 5722 5723 5723 5723 5723 5723 5723 5724 5724 5725 5725 5726 5726 5727 5727 5727 5727 5727 5728 5728 5728 5728 5729 5729 5729 5730 5730 5730 5730 5731 5731 5731 5732 5733 5733 5734 5734 5734 5735 5735 5736 5736 5736 5737 5737 5737 5737 5737 5738 5738 5738 5739 5739 5739 5740 5739 5739 5740 5741 5742 5742 5743
5718 5718 5720 5720 5720 5720 5720 5720 5721 5721 5722 5723 5723 5724 5724 5725 5725 5725 5725 5725 5725 5726 5726 5726 5726 5726 5727 5727 5728 5728 5728 5728 5729 5729 5730 5730 5731 5732 5732 5732 5733 5733 5734 5734 5735 5735 5735 5735 5736 5736 5736 5736 5736 5736 5737 5737 5738 5737 5737 5738 5739 5739 5739
5714 5715 5716 5717 5718 5718 5718 5717 5718 5719 5720 5720 5720 5721 5721 5722 5723 5723 5723 5723 5723 5723 5724 5724 5724 5724 5724 5725 5725 5726 5726 5726 5726 5726 5727 5727 5728 5728 5729 5729 5729 5730 5730 5731 5731 5732 5732 5733 5733 5733 5733 5733 5734 5734 5734 5734 5735 5735 5735 5735 5735 5736 5736
5711 5712 5713 5713 5714 5716 5716 5715 5715 5716 5717 5717 5717 5718 5718 5718 5719 5719 5720 5720 5720 5720 5721 5721 5721 5721 5722 5722 5722 5723 5723 5723 5723 5723 5724 5725 5725 5725 5725 5726 5726 5726 5726 5727 5727 5728 5728 5729 5729 5730 5730 5730 5730 5731 5731 5731 5731 5732 5732 5731 5731 5732 5732
5707 5709 5710 5710 5710 5712 5712 5712 5712 5712 5713 5714 5715 5715 5715 5715 5715 5715 5716 5717 5717 5717 5718 5719 5719 5719 5718 5719 5719 5719 5719 5719 5720 5720 5721 5721 5722 5722 5722 5722 5723 5723 5723 5723 5723 5723 5724 5724 5725 5725 5726 5726 5727 5727 5727 5727 5727 5728 5728 5728 5727 5727 5728
5704 5705 5706 5706 5706 5707 5708 5708 5708 5708 5709 5710 5711 5711 5711 5712 5712 5712 5713 5714 5714 5715 5715 5715 5715 5715 5715 5715 5715 5715 5716 5716 5716 5716 5717 5717 5718 5718 5719 5719 5719 5719 5719 5719 5720 5720 5720 5720 5721 5721 5721 5722 5722 5723 5723 5723 5723 5723 5724 5724 5723 5723 5723
5700 5701 5701 5702 5703 5704 5704 5704 5705 5705 5705 5706 5706 5707 5707 5707 5708 5709 5710 5710 5711 5711 5711 5711 5711 5711 5711 5711 5711 5712 5712 5712 5713 5713 5713 5713 5714 5714 5714 5715 5715 5715 5715 5715 5715 5716 5716 5716 5717 5717 5717 5717 5718 5718 5718 5718 5718 5718 5719 5719 5719 5719 5718
5696 5697 5697 5698 5698 5699 5700 5700 5700 5701 5701 5701 5702 5703 5703 5703 5704 5705 5705 5706 5706 5706 5707 5707 5707 5707 5707 5707 5707 5708 5708 5709 5709 5709 5709 5709 5710 5710 5710 5710 5710 5710 5710 5710 5711 5711 5711 5712 5712 5712 5712 5713 5713 5714 5714 5714 5714 5714 5714 5714 5715 5715 5714
5692 5692 5693 5693 5693 5694 5695 5695 5696 5696 5697 5697 5698 5698 5699 5698 5699 5701 5700 5700 5701 5702 5703 5703 5703 5703 5703 5702 5702 5703 5704 5704 5705 5705 5706 5706 5706 5706 5706 5706 5705 5705 5705 5705 5706 5706 5706 5706 5707 5707 5707 5708 5708 5709 5709 5709 5709 5709 5709 5710 5710 5710 5710
5687 5687 5688 5689 5689 5690 5690 5690 5690 5691 5692 5692 5692 5692 5693 5693 5694 5695 5694 5694 5695 5696 5698 5699 5699 5698 5699 5698 5698 5698 5699 5699 5699 5700 5700 5701 5701 5701 5701 5701 5701 5700 5700 5700 5700 5700 5701 5701 5702 5702 5702 5703 5703 5703 5704 5704 5704 5704 5704 5705 5705 5705 5705
5681 5682 5682 5683 5684 5684 5685 5685 5685 5685 5685 5686 5687 5687 5687 5688 5688 5689 5689 5690 5690 5690 5692 5694 5694 5694 5693 5693 5693 5694 5694 5694 5693 5694 5695 5695 5696 5696 5696 5695 5696 5696 5695 5694 5694 5695 5695 5695 5696 5697 5697 5697 5697 5698 5698 5698 5699 5699 5699 5699 5700 5700 5700
5675 5676 5677 5677 5678 5678 5678 5679 5680 5680 5680 5680 5681 5681 5681 5682 5681 5682 5684 5684 5684 5684 5685 5687 5688 5688 5687 5687 5687 5688 5689 5689 5689 5688 5689 5689 5689 5690 5690 5690 5690 5690 5690 5690 5689 5689 5689 5689 5690 5690 5691 5691 5691 5691 5692 5692 5693 5693 5693 5693 5694 5694 5694
5668 5669 5670 5671 5672 5672 5672 5672 5673 5674 5675 5675 5675 5675 5675 5675 5675 5675 5677 5677 5677 5677 5679 5681 5682 5682 5681 5681 5682 5683 5684 5684 5684 5683 5682 5682 5682 5683 5684 5684 5684 5684 5685 5685 5684 5683 5683 5683 5683 5684 5684 5684 5684 5685 5685 5686 5687 5687 5687 5687 5688 5688 5688
5661 5662 5663 5664 5665 5665 5666 5665 5666 5667 5668 5669 5669 5669 5669 5670 5669 5669 5670 5670 5670 5671 5674 5675 5675 5675 5676 5676 5677 5678 5678 5678 5678 5677 5676 5676 5676 5677 5677 5677 5678 5678 5678 5679 5679 5678 5678 5677 5677 5677 5677 5677 5678 5678 5678 5678 5679 5680 5680 5681 5681 5682 5681
5656 5656 5657 5658 5658 5659 5659 5659 5659 5660 5660 5661 5662 5663 5663 5664 5664 5664 5664 5664 5665 5667 5669 5669 5669 5670 5670 5670 5671 5672 5671 5672 5672 5671 5670 5670 5670 5671 5671 5671 5671 5671 5671 5671 5672 5672 5672 5671 5670 5670 5670 5671 5671 5671 5672 5672 5672 5672 5672 5673 5674 5675 5675
5649 5650 5651 5651 5652 5652 5652 5653 5653 5653 5653 5654 5655 5656 5657 5657 5657 5658 5658 5658 5661 5663 5662 5662 5664 5664 5664 5664 5665 5665 5665 5666 5666 5664 5664 5664 5664 5665 5665 5665 5665 5664 5664 5664 5665 5666 5666 5665 5664 5663 5663 5664 5664 5664 5665 5665 5665 5665 5665 5665 5666 5667 5668
5642 5643 5643 5644 5644 5645 5645 5646 5646 5646 5646 5647 5647 5648 5649 5650 5650 5651 5651 5652 5655 5656 5655 5656 5657 5658 5658 5659 5659 5659 5659 5659 5659 5658 5657 5657 5657 5658 5658 5658 5658 5657 5657 5657 5657 5659 5659 5657 5657 5657 5657 5657 5657 5658 5658 5657 5657 5658 5658 5658 5660 5660 5661
5634 5635 5636 5637 5637 5637 5638 5639 5639 5639 5640 5640 5640 5639 5640 5642 5643 5644 5644 5646 5648 5649 5647 5648 5650 5651 5652 5652 5652 5652 5652 5652 5652 5651 5651 5651 5651 5651 5651 5651 5651 5650 5650 5650 5650 5651 5651 5649 5649 5649 5650 5650 5650 5651 5651 5650 5649 5650 5650 5651 5653 5653 5654
5627 5628 5629 5629 5630 5630 5631 5631 5632 5632 5632 5632 5632 5631 5632 5633 5635 5637 5637 5638 5640 5641 5640 5641 5643 5643 5644 5645 5645 5645 5645 5644 5645 5645 5644 5644 5644 5644 5644 5644 5644 5644 5643 5643 5643 5643 5643 5642 5641 5642 5642 5642 5643 5643 5643 5642 5642 5643 5643 5644 5645 5645 5646
5620 5621 5621 5622 5622 5623 5623 5624 5624 5624 5625 5625 5624 5624 5624 5626 5629 5631 5631 5631 5632 5633 5634 5635 5636 5636 5637 5637 5637 5637 5637 5637 5638 5638 5637 5637 5637 5636 5636 5636 5637 5637 5637 5636 5635 5635 5635 5634 5634 5634 5634 5634 5634 5635 5634 5634 5635 5635 5636 5636 5637 5637 5637
5613 5614 5615 5615 5616 5616 5616 5616 5617 5617 5617 5618 5618 5617 5618 5621 5623 5624 5624 5624 5625 5627 5628 5629 5629 5629 5630 5630 5630 5630 5629 5630 5630 5631 5630 5630 5629 5629 5628 5627 5628 5630 5629 5628 5627 5626 5626 5626 5626 5625 5625 5625 5625 5625 5625 5626 5626 5626 5627 5628 5628 5628 5628
5606 5607 5608 5608 5609 5609 5609 5609 5610 5610 5610 5611 5612 5611 5613 5615 5616 5616 5617 5618 5619 5621 5622 5622 5623 5623 5623 5623 5624 5623 5623 5623 5624 5623 5623 5623 5622 5622 5621 5619 5620 5622 5621 5619 5619 5619 5618 5618 5618 5617 5617 5616 5615 5615 5615 5616 5617 5617 5618 5618 5618 5619 5619
5598 5599 5600 5601 5602 5602 5603 5603 5603 5604 5604 5605 5606 5605 5606 5608 5609 5609 5610 5612 5614 5615 5615 5615 5616 5616 5616 5616 5617 5617 5617 5617 5617 5616 5616 5616 5615 5614 5613 5611 5611 5613 5612 5611 5611 5611 5610 5610 5609 5609 5608 5607 5607 5606 5606 5606 5607 5608 5608 5608 5608 5609 5610
5590 5592 5593 5593 5594 5595 5595 5596 5597 5598 5599 5600 5599 5598 5599 5601 5602 5603 5604 5606 5607 5608 5608 5609 5609 5609 5610 5610 5610 5610 5610 5610 5610 5610 5609 5609 5608 5607 5606 5605 5604 5605 5604 5603 5603 5602 5601 5601 5601 5600 5600 5599 5598 5597 5596 5597 5597 5597 5597 5598 5598 5599 5599
5583 5584 5585 5586 5586 5587 5587 5588 5590 5592 5592 5592 5591 5591 5593 5595 5595 5597 5598 5599 5600 5601 5601 5602 5603 5603 5603 5604 5604 5604 5604 5604 5604 5603 5603 5602 5602 5601 5600 5599 5598 5597 5596 5595 5595 5594 5593 5593 5592 5591 5590 5589 5588 5587 5587 5587 5586 5586 5587 5588 5588 5589 5589